When you browse on this site, cookies collect data to enhance your experience and personalize the content and advertising you see.
Visit our Privacy Policy to learn more. By continuing to use the site, you agree to this use of cookies and data.
  • în România
  • Lista ţărilor
  • Pe 7 zile
  • Temperatura apei
  • Meteo pe hartă
  • Widget-uri
  • user-avatar
    Intrare

    Meteo pe oră la Totonicapán

    Astăzi, 14 Noiembrie, Joi

    Timp Temperatura Precipitaţii Vânt Presiune Umiditate
    00:00 +9°C° 0 mm 1 m/s 553 mmHg 93%
    01:00 +9°C° 0 mm 1 m/s 553 mmHg 92%
    02:00 +8°C° 0 mm 1 m/s 552 mmHg 92%
    03:00 +8°C° 0 mm 1 m/s 552 mmHg 91%
    04:00 +7°C° 0 mm 1 m/s 552 mmHg 89%
    05:00 +7°C° 0 mm 1 m/s 552 mmHg 87%
    06:00 +7°C° 0 mm 1 m/s 552 mmHg 84%
    07:00 +10°C° 0 mm 1 m/s 554 mmHg 75%
    08:00 +13°C° 0 mm 1 m/s 556 mmHg 66%
    09:00 +15°C° 0 mm 0 m/s 558 mmHg 57%
    10:00 +18°C° 0 mm 1 m/s 558 mmHg 55%
    11:00 +19°C° 0 mm 1 m/s 558 mmHg 53%
    12:00 +19°C° 0 mm 2 m/s 558 mmHg 51%
    13:00 +18°C° 0.5 mm 2 m/s 557 mmHg 61%
    14:00 +17°C° 0.5 mm 2 m/s 556 mmHg 70%
    15:00 +15°C° 0.5 mm 1 m/s 555 mmHg 80%
    16:00 +14°C° 0.4 mm 1 m/s 555 mmHg 85%
    17:00 +13°C° 0.4 mm 1 m/s 554 mmHg 91%
    18:00 +10°C° 0.4 mm 0 m/s 554 mmHg 96%
    19:00 +11°C° 0.3 mm 1 m/s 554 mmHg 96%
    20:00 +10°C° 0.3 mm 1 m/s 554 mmHg 96%
    21:00 +10°C° 0.3 mm 1 m/s 554 mmHg 96%
    22:00 +10°C° 0 mm 1 m/s 554 mmHg 96%
    23:00 +10°C° 0 mm 1 m/s 554 mmHg 96%

    Mâine, 15 Noiembrie, Vineri

    Timp Temperatura Precipitaţii Vânt Presiune Umiditate
    00:00 +10°C° 0 mm 1 m/s 554 mmHg 95%
    01:00 +9°C° 0 mm 1 m/s 554 mmHg 94%
    02:00 +9°C° 0 mm 1 m/s 553 mmHg 94%
    03:00 +9°C° 0 mm 1 m/s 553 mmHg 93%
    04:00 +9°C° 0 mm 1 m/s 553 mmHg 92%
    05:00 +9°C° 0 mm 1 m/s 553 mmHg 91%
    06:00 +8°C° 0 mm 1 m/s 553 mmHg 90%
    07:00 +10°C° 0 mm 1 m/s 554 mmHg 84%
    08:00 +13°C° 0 mm 1 m/s 556 mmHg 78%
    09:00 +15°C° 0 mm 1 m/s 557 mmHg 71%
    10:00 +16°C° 0 mm 1 m/s 558 mmHg 65%
    11:00 +17°C° 0 mm 2 m/s 558 mmHg 60%
    12:00 +19°C° 0 mm 2 m/s 558 mmHg 54%
    13:00 +18°C° 0.3 mm 2 m/s 557 mmHg 60%
    14:00 +17°C° 0.3 mm 2 m/s 556 mmHg 66%
    15:00 +16°C° 0.3 mm 2 m/s 555 mmHg 72%
    16:00 +14°C° 0.3 mm 2 m/s 555 mmHg 80%
    17:00 +13°C° 0.3 mm 2 m/s 554 mmHg 88%
    18:00 +11°C° 0.3 mm 1 m/s 554 mmHg 95%
    19:00 +10°C° 0.2 mm 1 m/s 554 mmHg 96%
    20:00 +9°C° 0.2 mm 2 m/s 554 mmHg 96%
    21:00 +8°C° 0.2 mm 2 m/s 554 mmHg 96%
    22:00 +8°C° 0 mm 2 m/s 554 mmHg 95%
    23:00 +8°C° 0 mm 2 m/s 553 mmHg 94%

    Poimâine, 16 Noiembrie, Sâmbătă

    Timp Temperatura Precipitaţii Vânt Presiune Umiditate
    00:00 +8°C° 0 mm 2 m/s 553 mmHg 93%
    01:00 +8°C° 0 mm 2 m/s 553 mmHg 93%
    02:00 +8°C° 0 mm 2 m/s 553 mmHg 92%
    03:00 +9°C° 0 mm 2 m/s 553 mmHg 92%
    04:00 +8°C° 0 mm 2 m/s 553 mmHg 92%
    05:00 +8°C° 0 mm 2 m/s 553 mmHg 93%
    06:00 +8°C° 0 mm 2 m/s 553 mmHg 93%
    07:00 +9°C° 0 mm 2 m/s 554 mmHg 87%
    08:00 +12°C° 0 mm 2 m/s 555 mmHg 81%
    09:00 +13°C° 0 mm 2 m/s 556 mmHg 74%
    10:00 +15°C° 0 mm 2 m/s 557 mmHg 69%
    11:00 +16°C° 0 mm 2 m/s 557 mmHg 64%
    12:00 +17°C° 0 mm 2 m/s 557 mmHg 59%
    13:00 +17°C° 0.3 mm 2 m/s 556 mmHg 65%
    14:00 +16°C° 0.3 mm 2 m/s 555 mmHg 71%
    15:00 +15°C° 0.3 mm 1 m/s 554 mmHg 76%
    16:00 +13°C° 0.2 mm 1 m/s 554 mmHg 83%
    17:00 +12°C° 0.2 mm 1 m/s 553 mmHg 89%
    18:00 +10°C° 0.2 mm 1 m/s 553 mmHg 96%
    19:00 +10°C° 0.1 mm 1 m/s 553 mmHg 96%
    20:00 +9°C° 0.1 mm 1 m/s 553 mmHg 96%
    21:00 +9°C° 0.1 mm 1 m/s 553 mmHg 96%
    22:00 +8°C° 0 mm 1 m/s 552 mmHg 95%
    23:00 +8°C° 0 mm 1 m/s 552 mmHg 94%

    17 Noiembrie, Duminică

    Timp Temperatura Precipitaţii Vânt Presiune Umiditate
    00:00 +8°C° 0 mm 1 m/s 552 mmHg 92%
    01:00 +8°C° 0 mm 1 m/s 552 mmHg 92%
    02:00 +8°C° 0 mm 1 m/s 551 mmHg 92%
    03:00 +8°C° 0 mm 1 m/s 551 mmHg 92%
    04:00 +8°C° 0 mm 1 m/s 551 mmHg 91%
    05:00 +8°C° 0 mm 1 m/s 552 mmHg 91%
    06:00 +9°C° 0 mm 1 m/s 552 mmHg 91%
    07:00 +11°C° 0 mm 1 m/s 553 mmHg 83%
    08:00 +13°C° 0 mm 1 m/s 555 mmHg 76%
    09:00 +15°C° 0 mm 1 m/s 556 mmHg 68%
    10:00 +16°C° 0 mm 1 m/s 556 mmHg 66%
    11:00 +18°C° 0 mm 1 m/s 556 mmHg 63%
    12:00 +18°C° 0 mm 2 m/s 557 mmHg 60%
    13:00 +17°C° 0.6 mm 2 m/s 555 mmHg 68%
    14:00 +16°C° 0.6 mm 1 m/s 554 mmHg 77%
    15:00 +15°C° 0.6 mm 1 m/s 553 mmHg 85%
    16:00 +14°C° 1.2 mm 1 m/s 553 mmHg 89%
    17:00 +13°C° 1.2 mm 1 m/s 553 mmHg 93%
    18:00 +12°C° 1.2 mm 1 m/s 552 mmHg 97%
    19:00 +10°C° 0.8 mm 0 m/s 553 mmHg 97%
    20:00 +10°C° 0.8 mm 0 m/s 553 mmHg 98%
    21:00 +10°C° 0.8 mm 0 m/s 553 mmHg 98%
    22:00 +10°C° 0.2 mm 0 m/s 553 mmHg 97%
    23:00 +9°C° 0.2 mm 0 m/s 553 mmHg 97%

    18 Noiembrie, Luni

    Timp Temperatura Precipitaţii Vânt Presiune Umiditate
    00:00 +9°C° 0.2 mm 0 m/s 553 mmHg 97%
    01:00 +9°C° 0 mm 0 m/s 552 mmHg 96%
    02:00 +10°C° 0 mm 1 m/s 552 mmHg 95%
    03:00 +10°C° 0 mm 1 m/s 552 mmHg 95%
    04:00 +9°C° 0 mm 1 m/s 551 mmHg 94%
    05:00 +8°C° 0 mm 1 m/s 551 mmHg 94%
    06:00 +7°C° 0 mm 1 m/s 551 mmHg 93%
    07:00 +10°C° 0 mm 1 m/s 553 mmHg 85%
    08:00 +12°C° 0 mm 1 m/s 554 mmHg 76%
    09:00 +15°C° 0 mm 1 m/s 556 mmHg 68%
    10:00 +16°C° 0 mm 1 m/s 556 mmHg 64%
    11:00 +19°C° 0 mm 1 m/s 556 mmHg 59%
    12:00 +19°C° 0 mm 2 m/s 557 mmHg 54%
    13:00 +18°C° 0.2 mm 2 m/s 556 mmHg 62%
    14:00 +16°C° 0.2 mm 2 m/s 555 mmHg 70%
    15:00 +15°C° 0.2 mm 2 m/s 553 mmHg 78%
    16:00 +14°C° 0.3 mm 1 m/s 553 mmHg 84%
    17:00 +13°C° 0.3 mm 1 m/s 553 mmHg 90%
    18:00 +12°C° 0.3 mm 1 m/s 552 mmHg 97%
    19:00 +11°C° 0.4 mm 1 m/s 553 mmHg 97%
    20:00 +11°C° 0.4 mm 1 m/s 553 mmHg 97%
    21:00 +10°C° 0.4 mm 0 m/s 553 mmHg 98%
    22:00 +9°C° 0.5 mm 0 m/s 553 mmHg 98%
    23:00 +9°C° 0.5 mm 0 m/s 553 mmHg 98%

    19 Noiembrie, Marţi

    Timp Temperatura Precipitaţii Vânt Presiune Umiditate
    00:00 +9°C° 0.5 mm 0 m/s 553 mmHg 98%
    01:00 +9°C° 0.1 mm 0 m/s 552 mmHg 98%
    02:00 +9°C° 0.1 mm 0 m/s 552 mmHg 97%
    03:00 +9°C° 0.1 mm 0 m/s 552 mmHg 97%
    04:00 +8°C° 0 mm 0 m/s 552 mmHg 97%
    05:00 +8°C° 0 mm 0 m/s 552 mmHg 96%
    06:00 +8°C° 0 mm 0 m/s 552 mmHg 96%
    07:00 +11°C° 0 mm 1 m/s 553 mmHg 88%
    08:00 +13°C° 0 mm 1 m/s 555 mmHg 80%
    09:00 +15°C° 0 mm 1 m/s 556 mmHg 72%
    10:00 +16°C° 0.1 mm 1 m/s 556 mmHg 70%
    11:00 +18°C° 0.1 mm 1 m/s 556 mmHg 68%
    12:00 +17°C° 0.1 mm 2 m/s 557 mmHg 66%
    13:00 +16°C° 0.5 mm 2 m/s 556 mmHg 72%
    14:00 +15°C° 0.5 mm 2 m/s 555 mmHg 78%
    15:00 +14°C° 0.5 mm 1 m/s 554 mmHg 84%
    16:00 +13°C° 1.1 mm 1 m/s 554 mmHg 88%
    17:00 +12°C° 1.1 mm 1 m/s 554 mmHg 92%
    18:00 +11°C° 1.1 mm 1 m/s 553 mmHg 96%
    19:00 +11°C° 0.9 mm 1 m/s 554 mmHg 96%
    20:00 +10°C° 0.9 mm 1 m/s 554 mmHg 96%
    21:00 +10°C° 0.9 mm 1 m/s 554 mmHg 97%
    22:00 +10°C° 0.5 mm 1 m/s 554 mmHg 96%
    23:00 +9°C° 0.5 mm 1 m/s 553 mmHg 96%
    Arată mai mult